Weather observations for the past three days for
Bakersfield, Meadows Field Airport
Imperial (Metric)
Date Time (pdt) Wind (mph) Vis. (mi.) Weather Sky Cond. Temperature (ºF) Relative Humidity Wind Chill (°F) Heat Index (°F) Pressure Precipitation (in)
Air Dwpt 6 hour altimeter (in) sea level (mb) 1 hr 3 hr 6 hr
Max. Min.
17 14:54 NW 18 G 28 10.00 Fair CLR 84.9 46.9 27% 82 29.76 1007.1
17 13:54 W 17 G 26 10.00 Fair CLR 82 46.9 29% 80 29.78 1007.8
17 12:54 W 15 G 25 10.00 Fair CLR 80.1 46.9 31% 79 29.8 1008.4
17 11:54 NW 17 G 26 10.00 Fair CLR 79 46.9 32% 79 29.81 1008.8
17 10:54 NW 17 G 24 10.00 Fair CLR 77 46.9 77 64.9 35% 78 29.82 1009.1
17 09:54 N 18 G 24 10.00 Fair CLR 75 46 36% 77 29.83 1009.5
17 08:54 NW 16 10.00 Fair CLR 73 46 38% 29.83 1009.7
17 07:54 NW 13 10.00 Fair CLR 71.1 44.1 38% 29.83 1009.5
17 06:54 Calm 10.00 Fair CLR 66 43 43% 29.82 1009.1
17 05:54 NW 5 10.00 Fair CLR 64.9 43 45% 29.8 1008.6
17 04:54 NW 7 10.00 Fair CLR 66 42.1 75 64 42% 29.79 1008.3
17 03:54 NW 9 10.00 Fair CLR 68 42.1 39% 29.79 1008.1
17 02:54 NW 6 10.00 Fair CLR 64 41 43% 29.78 1007.9
17 01:54 W 7 10.00 Fair CLR 68 41 38% 29.78 1007.7
17 00:54 W 3 10.00 Fair CLR 70 39 32% 29.77 1007.5
16 23:54 NW 7 10.00 Fair CLR 72 39 30% 29.77 1007.3
16 22:54 NW 5 10.00 Fair CLR 72 39.9 90 72 31% 29.76 1007.2
16 21:54 NW 7 10.00 Fair CLR 75 44.1 33% 77 29.75 1006.9
16 20:54 NW 8 10.00 Fair CLR 75.9 46.9 36% 78 29.74 1006.3
16 19:54 NW 8 10.00 Fair CLR 84 46 27% 82 29.72 1005.7
16 18:54 NW 13 10.00 Fair CLR 88 48 25% 85 29.71 1005.4
16 17:54 NW 15 10.00 Fair CLR 89.1 45 22% 86 29.71 1005.4
16 16:54 NW 16 G 22 10.00 Fair CLR 90 45 91 80.1 21% 86 29.73 1006.0
16 15:54 NW 13 G 22 10.00 Fair CLR 89.1 41 19% 85 29.74 1006.6
16 14:54 Vrbl 5 G 21 10.00 Fair CLR 87.1 39.9 19% 84 29.76 1007.2
16 13:54 NW 9 G 17 10.00 Fair CLR 87.1 37.9 18% 84 29.79 1007.9
16 12:54 Vrbl 3 10.00 Fair CLR 82.9 39.9 22% 81 29.81 1008.8
16 11:54 Vrbl 7 G 17 10.00 Fair CLR 81 39.9 23% 79 29.83 1009.7
16 10:54 NW 6 10.00 Fair CLR 80.1 41 81 64.9 25% 79 29.85 1010.1
16 09:54 NW 13 10.00 Fair CLR 79 39 24% 78 29.85 1010.2
16 08:54 N 7 10.00 Fair CLR 77 39 26% 77 29.86 1010.5
16 07:54 SE 6 10.00 Fair CLR 73 44.1 35% 29.85 1010.2
16 06:54 E 3 10.00 Fair CLR 69.1 45 42% 29.84 1010.0
16 05:54 Calm 10.00 Fair CLR 64.9 43 45% 29.84 1009.7
16 04:54 Calm 10.00 Fair CLR 66 43 73 64 43% 29.83 1009.4
16 03:54 Calm 10.00 Fair CLR 66.9 43 42% 29.82 1009.3
16 02:54 N 5 10.00 Fair CLR 64.9 43 45% 29.83 1009.4
16 01:54 N 5 10.00 Fair CLR 68 43 40% 29.83 1009.5
16 00:54 W 3 10.00 Fair CLR 70 43 38% 29.84 1009.7
15 23:54 N 5 10.00 Fair CLR 68 39.9 36% 29.84 1009.7
15 22:54 Calm 10.00 Fair CLR 71.1 39 91 69.1 31% 29.84 1009.7
15 21:54 N 7 10.00 Fair CLR 77 37 24% 77 29.83 1009.4
15 20:54 NW 7 10.00 Fair CLR 75 30.9 20% 76 29.81 1009.0
15 19:54 NW 6 10.00 Fair CLR 84 34 17% 81 29.8 1008.5
15 18:54 NW 10 10.00 Fair CLR 89.1 33.1 14% 85 29.8 1008.3
15 17:54 W 13 10.00 Fair CLR 90 35.1 14% 86 29.8 1008.5
15 16:54 W 9 10.00 Fair CLR 91 33.1 91 81 13% 87 29.82 1009.1
15 15:54 NW 12 10.00 Fair CLR 90 33.1 13% 86 29.84 1009.7
15 14:54 W 12 G 18 10.00 Fair CLR 89.1 34 14% 85 29.85 1010.3
15 13:54 NW 12 G 18 10.00 Fair CLR 87.1 37.9 18% 84 29.88 1011.1
15 12:54 NW 12 G 20 10.00 Fair CLR 84.9 37 18% 82 29.9 1011.9
15 11:54 NW 10 G 18 10.00 Fair CLR 82.9 35.1 18% 80 29.92 1012.6
15 10:54 Vrbl 7 G 16 10.00 Fair CLR 81 34 82 64.9 18% 79 29.94 1013.3
15 09:54 Vrbl 7 10.00 Fair CLR 77 39.9 26% 77 29.96 1013.7
15 08:54 W 7 10.00 Fair CLR 73.9 39 28% 29.97 1014.2
15 07:54 NW 12 10.00 Fair CLR 73 37.9 28% 29.97 1014.4
15 06:54 N 6 10.00 Fair CLR 73 35.1 25% 29.96 1013.7
15 05:54 N 7 10.00 Fair CLR 71.1 36 28% 29.95 1013.5
15 04:54 N 5 10.00 Fair CLR 70 41 75.9 69.1 35% 29.94 1013.0
15 03:54 Calm 10.00 Fair CLR 69.1 44.1 41% 29.93 1012.7
15 02:54 Calm 10.00 Fair CLR 71.1 44.1 38% 29.93 1012.7
15 01:54 NW 3 10.00 Fair CLR 71.1 48 44% 29.93 1012.8
15 00:54 NW 3 10.00 Fair CLR 73 44.1 35% 29.93 1012.9
14 23:54 W 7 10.00 Fair CLR 75 39.9 28% 77 29.93 1013.0
14 22:54 NW 5 10.00 Fair CLR 75 39 97 75 27% 77 29.93 1012.8
14 21:54 N 9 10.00 Fair CLR 82 39.9 22% 80 29.92 1012.3
14 20:54 N 9 10.00 Fair CLR 82 44.1 26% 80 29.9 1011.7
14 19:54 NW 8 10.00 Fair CLR 89.1 43 20% 85 29.88 1011.0
14 18:54 NW 12 10.00 Fair CLR 95 39.9 15% 91 29.88 1010.9
14 17:54 NW 12 10.00 Fair CLR 96.1 39.9 14% 92 29.87 1010.7
14 16:54 W 9 10.00 Fair CLR 96.1 48 97 84.9 19% 93 29.88 1011.1
14 15:54 NW 12 G 17 10.00 Fair CLR 96.1 42.1 15% 92 29.89 1011.5
Date Time (pdt) Wind (mph) Vis. (mi.) Weather Sky Cond. Air Dwpt Max. Min. Relative Humidity Wind Chill (°F) Heat Index (°F) altimeter (in) sea level (mb) 1 hr 3 hr 6 hr
6 hour
Temperature (ºF) Pressure Precipitation (in)